Regional Weather Roundup
Issued by NWS

Home | Current Version | Previous Version | Graphics & Text | Print | Product List | Glossary Off
Versions: 1 2 3 4 5 6 7 8 9 10 11 12 13 14 15 16 17 18 19 20 21 22 23 24 25 26 27 28 29 30 31 32 33 34 35 36 37 38 39 40 41 42 43 44 45 46 47 48 49 50

000
ASUS43 KTOP 241908
RWRKS

WEATHER ROUNDUP FOR KANSAS
NATIONAL WEATHER SERVICE GOODLAND KS
200 PM CDT TUE MAY 24 2016

NOTE:  "FAIR" INDICATES FEW OR NO CLOUDS BELOW 12,000 FEET WITH NO
SIGNIFICANT WEATHER AND/OR OBSTRUCTIONS TO VISIBILITY.

KSZ001>006-013>018-027>032-041>047-242000-
NORTHWEST KANSAS

CITY           SKY/WX    TMP DP  RH WIND       PRES   REMARKS
GOODLAND       CLOUDY    71  58  63 SE18G29   29.91F
HAYS           MOSUNNY   79  55  44 SE18G29   29.88F
HILL CITY      CLOUDY    74  58  57 SE16G24   29.90F
RUSSELL        MOSUNNY   76  59  55 SE21      29.88F
$$

KSZ061>065-074>080-084>089-242000-
SOUTHWEST KANSAS

CITY           SKY/WX    TMP DP  RH WIND       PRES   REMARKS
DODGE CITY     PTSUNNY   78  68  71 SE21G28   29.86F
ELKHART          N/A     82  56  40 S3          N/A
GARDEN CITY    PTSUNNY   82  64  54 SE18G28   29.84F
GREAT BEND     PTSUNNY   79  61  53 SE20      29.87F
LIBERAL        SUNNY     88  61  40 S10       29.85S
PRATT          PTSUNNY   75  65  70 SE14      29.88F
$$

KSZ066>073-081>083-090>101-242000-
SOUTHEAST KANSAS

CITY           SKY/WX    TMP DP  RH WIND       PRES   REMARKS
CHANUTE        CLOUDY    76  66  71 SE9       29.96S
COFFEYVILLE    PTSUNNY   81  70  69 SE5       29.94S
HUTCHINSON     MOSUNNY   79  63  57 SE16G24   29.90S
MEDICINE LODGE   N/A     81  68  64 SE12G21   29.85F
NEWTON         SUNNY     77  61  57 SE16G25   29.94
PARSONS        CLOUDY    78  70  76 VRB7      29.96F
WICHITA INTL   MOSUNNY   80  69  69 E17       29.89F
WICHITA JABRA  PTSUNNY   77  68  73 E14       29.91S
WICHITA MCCONL PTSUNNY   78  69  72 SE13      29.90F
WINFIELD       PTSUNNY   81  69  67 E10       29.91S
$$

KSZ007>012-019>026-033>040-048>060-102>105-242000-
NORTHEAST KANSAS

CITY           SKY/WX    TMP DP  RH WIND       PRES   REMARKS
CONCORDIA      SUNNY     78  61  55 S18       29.89R
EMPORIA        SUNNY     76  61  59 SE18G28   29.91F
LAWRENCE       CLOUDY    78  64  61 SE15      29.89F
MANHATTAN      CLOUDY    82  59  45 SE15G24   29.88R
MARYSVILLE     SUNNY     77  64  65 W3        29.89R
OLATHE IND     CLOUDY    74  64  71 SE17      29.92F
OLATHE EXE     CLOUDY    73  64  73 SE14      29.92F
SALINA         SUNNY     82  60  47 SE22      29.89R
TOPEKA BILLARD CLOUDY    78  62  57 SE16      29.87F
TOPEKA FORBES  CLOUDY    80  63  55 SE17G25   29.88F
$$




USA.gov is the U.S. government's official web portal to all federal, state and local government web resources and services.